Weather History for Pompano Beach, FL

Change the Weather History Date:

Tuesday, September 10, 2013

  Actual Average Record
Temperature  
Mean Temperature 84 °F -  
Max Temperature 88 °F 92 °F 96 °F (1982)
Min Temperature 79 °F 73 °F 65 °F (1974)
Cooling Degree Days 18    
Growing Degree Days 34 (Base 50)    
Moisture  
Dew Point 74 °F    
Average Humidity 76    
Maximum Humidity 90    
Minimum Humidity 65    
Precipitation  
Precipitation 0.10 in - - ()
Sea Level Pressure  
Sea Level Pressure 30.02 in    
Wind  
Wind Speed 9 mph (East)    
Max Wind Speed 18 mph    
Max Gust Speed 25 mph    
Visibility 10 miles    
Events Rain    
Averages and records for this station are not official NWS values.
T = Trace of Precipitation, MM = Missing Value Source: NWS Daily Summary

Daily Weather History Graph

Daily Weather History Graph

Search for Another Location

Airport:

Trip Planner

Search our weather history database for the weather conditions in past years. The results will help you decide how hot, cold, wet, or windy it might be!

Date:

Astronomy

Sep. 10, 2013 Rise Set
Actual Time 7:04 AM EDT 7:30 PM EDT
Civil Twilight 6:40 AM EDT 7:53 PM EDT
Nautical Twilight 6:13 AM EDT 8:20 PM EDT
Astronomical Twilight 5:46 AM EDT 8:47 PM EDT
Moon 11:54 AM EDT (9/10) 11:06 PM EDT (9/10)
Length of Visible Light 13h 12m
Length of Day
12h 25m
Waxing Crescent, 28% of the Moon is Illuminated
Sep 10
Waxing Crescent
Sep 12
First Quarter
Sep 19
Full
Sep 26
Last Quarter
Oct 4
New

Hourly Weather History & Observations

Time (EDT) Temp. Heat Index Dew Point Humidity Pressure Visibility Wind Dir Wind Speed Gust Speed Precip Events Conditions
12:53 AM 79.0 °F - 75.9 °F 90% 29.98 in 10.0 mi NNE 3.5 mph - N/A   Unknown
1:53 AM 80.1 °F 85.1 °F 75.0 °F 85% 29.99 in 10.0 mi ENE 5.8 mph - N/A   Unknown
2:53 AM 81.0 °F 85.8 °F 73.0 °F 77% 29.98 in 10.0 mi ENE 9.2 mph - N/A   Unknown
3:53 AM 81.0 °F 86.2 °F 73.9 °F 79% 29.96 in 10.0 mi ENE 8.1 mph - N/A   Unknown
4:53 AM 81.0 °F 86.2 °F 73.9 °F 79% 29.97 in 10.0 mi East 9.2 mph - N/A   Unknown
5:53 AM 82.0 °F 87.9 °F 73.9 °F 76% 29.97 in 10.0 mi ENE 9.2 mph - N/A   Unknown
6:53 AM 82.0 °F 87.9 °F 73.9 °F 76% 29.99 in 10.0 mi East 6.9 mph - N/A   Unknown
7:53 AM 81.0 °F 85.8 °F 73.0 °F 77% 30.00 in 10.0 mi ESE 5.8 mph - N/A   Unknown
8:53 AM 84.0 °F 91.2 °F 73.9 °F 72% 30.03 in 10.0 mi East 9.2 mph - 0.00 in   Scattered Clouds
9:53 AM 84.9 °F 92.1 °F 73.9 °F 69% 30.04 in 10.0 mi East 11.5 mph - N/A   Scattered Clouds
10:53 AM 84.9 °F 92.1 °F 73.9 °F 69% 30.05 in 10.0 mi ENE 11.5 mph - 0.01 in   Scattered Clouds
11:04 AM 80.6 °F 85.4 °F 73.4 °F 79% 30.06 in 1.8 mi ENE 10.4 mph 21.9 mph 0.04 in Rain Heavy Rain
11:11 AM 80.6 °F 85.4 °F 73.4 °F 79% 30.06 in 8.0 mi ENE 5.8 mph - 0.08 in Rain Rain
11:53 AM 84.9 °F 94.1 °F 75.9 °F 74% 30.05 in 10.0 mi East 8.1 mph - 0.09 in   Scattered Clouds
12:53 PM 84.9 °F 92.1 °F 73.9 °F 69% 30.05 in 10.0 mi ESE 10.4 mph - N/A   Scattered Clouds
1:53 PM 86.0 °F 95.1 °F 75.0 °F 70% 30.03 in 10.0 mi NE 12.7 mph - N/A   Unknown
2:53 PM 88.0 °F 97.5 °F 75.0 °F 65% 30.01 in 10.0 mi East 12.7 mph - N/A   Mostly Cloudy
3:53 PM 79.0 °F - 72.0 °F 79% 30.01 in 10.0 mi ESE 15.0 mph - N/A   Mostly Cloudy
4:53 PM 81.0 °F 86.2 °F 73.9 °F 79% 30.01 in 10.0 mi ESE 17.3 mph 20.7 mph N/A   Unknown
5:53 PM 81.0 °F 86.2 °F 73.9 °F 79% 30.00 in 8.0 mi East 9.2 mph - N/A   Unknown
6:53 PM 82.9 °F 89.4 °F 73.9 °F 74% 30.02 in 10.0 mi East 11.5 mph - N/A   Unknown
7:53 PM 82.9 °F 88.8 °F 73.0 °F 72% 30.02 in 10.0 mi ENE 11.5 mph - N/A   Unknown
8:53 PM 82.0 °F 87.9 °F 73.9 °F 76% 30.03 in 10.0 mi East 8.1 mph - N/A   Unknown
9:53 PM 82.9 °F 88.8 °F 73.0 °F 72% 30.04 in 10.0 mi East 11.5 mph - N/A   Unknown
10:53 PM 82.0 °F 86.7 °F 72.0 °F 71% 30.04 in 10.0 mi East 18.4 mph 25.3 mph N/A   Unknown
11:53 PM 81.0 °F 86.2 °F 73.9 °F 79% 30.04 in 10.0 mi SE 10.4 mph - N/A   Unknown